Weather History for Altus AFB, OK

Change the Weather History Date:

Thursday, December 12, 2013

  Actual Average Record
Temperature  
Mean Temperature 28 °F -  
Max Temperature 37 °F 52 °F 66 °F (2006)
Min Temperature 18 °F 27 °F 15 °F (2000)
Degree Days  
Heating Degree Days 38    
Moisture  
Dew Point 26 °F    
Average Humidity 83    
Maximum Humidity 94    
Minimum Humidity 70    
Precipitation  
Precipitation 0.00 in - - ()
Sea Level Pressure  
Sea Level Pressure 30.44 in    
Wind  
Wind Speed 5 mph (SSE)    
Max Wind Speed 10 mph    
Max Gust Speed -    
Visibility 10 miles    
Events Rain    
Averages and records for this station are not official NWS values.
T = Trace of Precipitation, MM = Missing Value Source: NWS Daily Summary

Daily Weather History Graph

Daily Weather History Graph

Search for Another Location

Airport:

Trip Planner

Search our weather history database for the weather conditions in past years. The results will help you decide how hot, cold, wet, or windy it might be!

Date:

Astronomy

Dec. 12, 2013 Rise Set
Actual Time 7:34 AM CST 5:26 PM CST
Civil Twilight 7:07 AM CST 5:54 PM CST
Nautical Twilight 6:35 AM CST 6:26 PM CST
Astronomical Twilight 6:04 AM CST 6:57 PM CST
Moon 2:27 PM CST (12/12) 3:07 AM CST (12/12)
Length of Visible Light 10h 47m
Length of Day
9h 51m
Waxing Gibbous, 80% of the Moon is Illuminated
Dec 12
Waxing Gibbous
Dec 17
Full
Dec 25
Last Quarter
Jan 1
New
Jan 7
First Quarter

Hourly Weather History & Observations

Time (CST) Temp. Windchill Dew Point Humidity Pressure Visibility Wind Dir Wind Speed Gust Speed Precip Events Conditions
12:58 AM 23.5 °F 16.4 °F 17.4 °F 77% 30.64 in 10.0 mi NNE 5.8 mph - N/A   Clear
1:58 AM 22.3 °F - 16.7 °F 79% 30.63 in 10.0 mi Calm Calm - N/A   Clear
2:58 AM 21.7 °F - 16.0 °F 78% 30.58 in 10.0 mi Calm Calm - N/A   Clear
3:58 AM 21.6 °F 16.8 °F 17.4 °F 84% 30.61 in 10.0 mi NW 3.5 mph - N/A   Clear
4:58 AM 20.1 °F - 17.2 °F 89% 30.59 in 10.0 mi Calm Calm - N/A   Clear
5:58 AM 19.0 °F - 16.3 °F 89% 30.59 in 10.0 mi SW 1.2 mph - N/A   Clear
6:58 AM 18.7 °F 11.9 °F 15.4 °F 87% 30.59 in 10.0 mi West 4.6 mph - N/A   Clear
7:58 AM 18.9 °F - 16.7 °F 91% 30.60 in 10.0 mi WNW 1.2 mph - N/A   Clear
8:58 AM 25.7 °F - 20.1 °F 79% 30.60 in 10.0 mi NNW 2.3 mph - N/A   Clear
9:58 AM 27.9 °F - 21.7 °F 78% 30.61 in 10.0 mi SW 2.3 mph - N/A   Clear
10:58 AM 29.3 °F 24.3 °F 23.2 °F 78% 30.60 in 10.0 mi SSE 4.6 mph - N/A   Clear
11:58 AM 31.1 °F 25.4 °F 24.8 °F 77% 30.57 in 10.0 mi SSE 5.8 mph - N/A   Partly Cloudy
12:58 PM 33.6 °F 26.8 °F 25.7 °F 73% 30.51 in 10.0 mi South 8.1 mph - N/A   Clear
1:58 PM 36.3 °F 29.5 °F 27.5 °F 70% 30.46 in 10.0 mi SSE 9.2 mph - N/A   Partly Cloudy
2:58 PM 37.8 °F 30.7 °F 29.3 °F 72% 30.42 in 10.0 mi SSE 10.4 mph - N/A   Scattered Clouds
3:58 PM 37.9 °F 32.1 °F 29.7 °F 72% 30.39 in 10.0 mi SSE 8.1 mph - N/A   Mostly Cloudy
4:58 PM 37.0 °F 33.3 °F 31.1 °F 79% 30.36 in 10.0 mi SSE 4.6 mph - N/A   Partly Cloudy
5:58 PM 35.6 °F 31.7 °F 30.7 °F 82% 30.35 in 10.0 mi SE 4.6 mph - N/A   Scattered Clouds
6:58 PM 36.1 °F 30.6 °F 31.1 °F 82% 30.33 in 10.0 mi SSE 6.9 mph - N/A   Partly Cloudy
7:58 PM 36.9 °F 30.7 °F 31.5 °F 81% 30.32 in 10.0 mi SSE 8.1 mph - N/A   Overcast
8:19 PM 37.4 °F 30.3 °F 32.0 °F 81% 30.27 in 10.0 mi SSE 10.4 mph - N/A Rain Light Rain
8:53 PM 35.6 °F 28.0 °F 32.0 °F 87% 30.25 in 10.0 mi SSE 10.4 mph - N/A   Mostly Cloudy
8:58 PM 36.0 °F 28.5 °F 33.3 °F 90% 30.28 in 10.0 mi SSE 10.4 mph - 0.00 in   Mostly Cloudy
9:44 PM 35.6 °F 28.0 °F 33.8 °F 93% 30.22 in 10.0 mi SSE 10.4 mph - N/A   Light Drizzle
9:53 PM 35.6 °F 28.6 °F 33.8 °F 93% 30.23 in 10.0 mi South 9.2 mph - N/A   Scattered Clouds
9:58 PM 36.1 °F 29.3 °F 34.0 °F 92% 30.28 in 10.0 mi South 9.2 mph - 0.00 in   Mostly Cloudy
10:58 PM 36.5 °F 31.8 °F 34.5 °F 93% 30.24 in 10.0 mi SSE 5.8 mph - N/A   Overcast
11:58 PM 35.6 °F 30.7 °F 34.2 °F 94% 30.22 in 10.0 mi SSE 5.8 mph - N/A   Mostly Cloudy